Eufaula, AL

12:24 AM CDT on June 29, 2017 (GMT -0500)
Weedon

Weather History for KEUF - October, 2012

Change the Weather History Date:

Saturday, October 6, 2012

  Actual Average (KLSF) Record (KLSF)
Temperature  
Mean Temperature 76 °F -  
Max Temperature 87 °F 77 °F 87 °F (1997)
Min Temperature 66 °F 56 °F 41 °F (2010)
Cooling Degree Days 12    
Growing Degree Days 26 (Base 50)    
Moisture  
Dew Point 67 °F    
Average Humidity 85    
Maximum Humidity 100    
Minimum Humidity 44    
Precipitation  
Precipitation 0.00 in - - ()
Sea Level Pressure  
Sea Level Pressure 29.98 in    
Wind  
Wind Speed 1 mph (NNW)    
Max Wind Speed 5 mph    
Max Gust Speed -    
Visibility 6 miles    
Events Fog , Rain    
Averages and records for this station are not official NWS values.
T = Trace of Precipitation, MM = Missing Value Source: NWS Daily Summary

Daily Weather History Graph

Daily Weather History Graph

Search for Another Location

Airport or City:

Trip Planner

Search our weather history database for the weather conditions in past years. The results will help you decide how hot, cold, wet, or windy it might be!

Date:

Astronomy

Oct. 06, 2012 Rise Set
Actual Time 6:38 AM CDT 6:18 PM CDT
Civil Twilight 6:13 AM CDT 6:42 PM CDT
Nautical Twilight 5:45 AM CDT 7:11 PM CDT
Astronomical Twilight 5:16 AM CDT 7:39 PM CDT
Moon 10:48 PM CDT (10/6) 12:15 PM CDT (10/6)
Length of Visible Light 12h 29m
Length of Day
11h 40m
Waning Gibbous, 65% of the Moon is Illuminated
Oct 6
Waning Gibbous
Oct 8
Last Quarter
Oct 15
New
Oct 21
First Quarter
Oct 29
Full

Hourly Weather History & Observations

Time (CDT) Temp. Heat Index Dew Point Humidity Pressure Visibility Wind Dir Wind Speed Gust Speed Precip Events Conditions
12:58 AM 69.1 °F - 66.9 °F 93% 30.02 in 9.0 mi Calm Calm - N/A   Mostly Cloudy
1:58 AM 68.0 °F - 66.9 °F 96% 30.00 in 6.0 mi Calm Calm - N/A   Mostly Cloudy
2:58 AM 68.0 °F - 66.0 °F 93% 29.98 in 6.0 mi Calm Calm - N/A   Partly Cloudy
3:35 AM 68.0 °F - 66.2 °F 94% 29.99 in 6.0 mi Calm Calm - N/A   Scattered Clouds
3:43 AM 66.2 °F - 64.4 °F 94% 29.99 in 6.0 mi Calm Calm - N/A   Mostly Cloudy
3:48 AM 66.2 °F - 64.4 °F 94% 29.99 in 1.8 mi Calm Calm - N/A   Mostly Cloudy
3:58 AM 66.9 °F - 66.0 °F 97% 29.97 in 0.5 mi Calm Calm - N/A Fog Fog
4:58 AM 66.0 °F - 64.9 °F 96% 29.98 in 0.2 mi Calm Calm - N/A Fog Fog
5:58 AM 66.9 °F - 66.0 °F 97% 30.00 in 1.0 mi NNW 3.5 mph - 0.00 in Rain Light Rain
6:48 AM 68.0 °F - 66.2 °F 94% 30.02 in 0.5 mi Calm Calm - 0.00 in Fog Fog
6:58 AM 66.9 °F - 66.9 °F 100% 30.01 in 0.2 mi Calm Calm - 0.00 in Fog , Rain Light Rain
7:58 AM 68.0 °F - 66.9 °F 96% 30.01 in 0.2 mi Calm Calm - 0.00 in Fog , Rain Light Rain
8:40 AM 69.8 °F - 68.0 °F 94% 30.02 in 1.2 mi Calm Calm - 0.00 in   Overcast
8:58 AM 69.1 °F - 68.0 °F 96% 30.03 in 1.8 mi Calm Calm - 0.00 in   Overcast
9:02 AM 69.8 °F - 68.0 °F 94% 30.03 in 2.5 mi Calm Calm - N/A   Overcast
9:07 AM 69.8 °F - 69.8 °F 100% 30.03 in 4.0 mi Calm Calm - N/A   Overcast
9:58 AM 72.0 °F - 69.1 °F 91% 30.02 in 9.0 mi Variable 3.5 mph - N/A   Overcast
10:38 AM 73.4 °F - 69.8 °F 88% 30.03 in 10.0 mi Calm Calm - N/A   Overcast
10:58 AM 75.0 °F - 69.1 °F 82% 30.01 in 10.0 mi Variable 3.5 mph - N/A   Overcast
11:20 AM 78.8 °F - 69.8 °F 74% 30.02 in 10.0 mi Calm Calm - N/A   Scattered Clouds
11:58 AM 81.0 °F 84.1 °F 69.1 °F 67% 30.00 in 10.0 mi Variable 3.5 mph - N/A   Clear
12:58 PM 84.0 °F 86.3 °F 66.0 °F 55% 29.96 in 10.0 mi NNE 3.5 mph - N/A   Partly Cloudy
1:58 PM 84.9 °F 87.1 °F 66.0 °F 53% 29.94 in 10.0 mi NNW 3.5 mph - N/A   Mostly Cloudy
2:58 PM 87.1 °F 88.3 °F 64.0 °F 46% 29.91 in 10.0 mi Calm Calm - N/A   Clear
3:58 PM 87.1 °F 87.8 °F 63.0 °F 44% 29.89 in 10.0 mi Variable 4.6 mph - N/A   Clear
4:58 PM 84.9 °F 85.9 °F 63.0 °F 48% 29.90 in 10.0 mi Calm Calm - N/A   Clear
5:58 PM 77.0 °F - 70.0 °F 79% 29.91 in 10.0 mi Calm Calm - N/A   Clear
6:58 PM 70.0 °F - 66.9 °F 90% 29.93 in 10.0 mi WNW 3.5 mph - N/A   Clear
7:58 PM 68.0 °F - 66.0 °F 93% 29.94 in 10.0 mi Calm Calm - N/A   Clear
8:58 PM 68.0 °F - 64.9 °F 90% 29.96 in 10.0 mi Calm Calm - N/A   Clear
9:58 PM 66.0 °F - 64.0 °F 93% 29.98 in 10.0 mi Calm Calm - N/A   Clear
10:58 PM 71.1 °F - 64.9 °F 81% 29.98 in 10.0 mi Calm Calm - N/A   Clear
11:58 PM 69.1 °F - 64.9 °F 87% 29.97 in 10.0 mi Variable 3.5 mph - N/A   Clear